This is the latest recevied weather packets stored in our database for station/object N6SPP. If no packets are shown the sender has not sent any weather packets the latest 10 day(s).
| Time | Temp. | Humidity | Pressure | Rain* | Wind** | Luminosity | Snow |
|---|---|---|---|---|---|---|---|
| 1777923469 | 17.22° C | 60% | 1017.4 hPa | 0 mm | - | 285 W/m² | - |
| 1777923167 | 17.78° C | 59% | 1017.2 hPa | 0 mm | - | 267 W/m² | - |
| 1777922865 | 17.78° C | 59% | 1017.2 hPa | 0 mm | - | 265 W/m² | - |
| 1777922563 | 17.78° C | 59% | 1017.2 hPa | 0 mm | - | 289 W/m² | - |
| 1777922262 | 17.78° C | 59% | 1017.4 hPa | 0 mm | - | 313 W/m² | - |
| 1777921958 | 17.78° C | 56% | 1017.3 hPa | 0 mm | - | 319 W/m² | - |
| 1777921654 | 17.78° C | 57% | 1017.2 hPa | 0 mm | - | 346 W/m² | - |
| 1777921350 | 17.78° C | 58% | 1017.3 hPa | 0 mm | - | 375 W/m² | - |
| 1777921047 | 17.78° C | 58% | 1017.5 hPa | 0 mm | - | 388 W/m² | - |
| 1777920744 | 17.78° C | 59% | 1017.5 hPa | 0 mm | - | 435 W/m² | - |
| 1777920440 | 16.67° C | 59% | 1017.4 hPa | 0 mm | - | 576 W/m² | - |
| 1777920136 | 16.67° C | 62% | 1017.7 hPa | 0 mm | - | 360 W/m² | - |
| 1777919832 | 16.67° C | 63% | 1017.6 hPa | 0 mm | - | 262 W/m² | - |
| 1777919529 | 16.67° C | 63% | 1017.6 hPa | 0 mm | - | 227 W/m² | - |
| 1777919227 | 16.67° C | 64% | 1017.6 hPa | 0 mm | - | 220 W/m² | - |
| 1777918924 | 16.67° C | 64% | 1017.6 hPa | 0 mm | - | 242 W/m² | - |
| 1777918621 | 16.67° C | 64% | 1017.5 hPa | 0 mm | - | 257 W/m² | - |
| 1777918319 | 16.67° C | 65% | 1017.4 hPa | 0 mm | - | 297 W/m² | - |
| 1777918018 | 16.67° C | 64% | 1017.5 hPa | 0 mm | - | 311 W/m² | - |
| 1777917716 | 16.67° C | 65% | 1017.4 hPa | 0 mm | - | 339 W/m² | - |
| 1777917413 | 16.67° C | 66% | 1017.5 hPa | 0 mm | - | 270 W/m² | - |
| 1777917109 | 16.67° C | 67% | 1017.4 hPa | 0 mm | - | 197 W/m² | - |
| 1777916808 | 16.67° C | 66% | 1017.2 hPa | 0 mm | - | 489 W/m² | - |
| 1777916504 | 17.22° C | 66% | 1017.2 hPa | 0 mm | - | 424 W/m² | - |
| 1777916201 | 16.67° C | 66% | 1017.3 hPa | 0 mm | - | 415 W/m² | - |
* Rain latest hour (hover to see other rain measurements)
** Current wind speed in m/s (hover to see current wind gust speed)